K5WRW-WX Weather Reports


Display with metric or nautical units.
time (UTC)temp
F
wind
direction
speed
MPH
gust
MPH
rain 1hr
in
rain 24hr
in
rain mn
in
humidity
%
barometer
mb
20260504081516 62 0 3.0 6.0 0.00 0.00 0.00 67 1011.8
20260504080516 62 0 5.0 7.0 0.00 0.00 0.00 67 1011.9
20260504050556 66 0 5.0 9.0 0.00 0.00 0.00 58 1013.9
20260504045517 66 0 4.0 7.0 0.00 0.00 0.00 57 1014.0
20260504044517 66 0 4.0 7.0 0.00 0.00 0.00 57 1014.1
20260504043517 67 0 5.0 7.0 0.00 0.00 0.00 56 1014.0
20260504042517 67 0 6.0 7.0 0.00 0.00 0.00 55 1014.1
20260504041517 67 0 3.0 6.0 0.00 0.00 0.00 55 1014.1
20260504040517 67 0 6.0 8.0 0.00 0.00 0.00 55 1014.1
20260504035517 67 0 7.0 10.0 0.00 0.00 0.00 54 1014.1
20260504034517 68 0 6.0 9.0 0.00 0.00 0.00 54 1014.3
20260504033517 68 0 5.0 7.0 0.00 0.00 0.00 53 1014.2
20260504032517 68 0 5.0 8.0 0.00 0.00 0.00 53 1013.9
20260504031517 69 0 7.0 11.0 0.00 0.00 0.00 52 1013.8
20260504030517 69 0 6.0 8.0 0.00 0.00 0.00 51 1013.8
20260504025517 70 0 4.0 6.0 0.00 0.00 0.00 50 1013.8
20260504024517 70 0 4.0 8.0 0.00 0.00 0.00 49 1013.9
20260504023517 71 0 2.0 4.0 0.00 0.00 0.00 47 1013.8
20260504022517 71 0 5.0 8.0 0.00 0.00 0.00 47 1013.8
20260504021517 72 0 4.0 7.0 0.00 0.00 0.00 46 1013.7
20260504020517 72 0 5.0 7.0 0.00 0.00 0.00 44 1013.5
20260504015537 73 0 2.0 4.0 0.00 0.00 0.00 43 1013.5
20260504014517 74 0 4.0 7.0 0.00 0.00 0.00 41 1013.5
20260504013557 75 0 3.0 5.0 0.00 0.00 0.00 40 1013.5
20260504012516 75 0 4.0 6.0 0.00 0.00 0.00 38 1013.4
20260504011517 76 0 4.0 6.0 0.00 0.00 0.00 37 1013.4
20260504010517 77 0 6.0 7.0 0.00 0.00 0.00 37 1013.4
20260504005517 77 0 5.0 9.0 0.00 0.00 0.00 36 1013.3
20260504004517 78 0 4.0 7.0 0.00 0.00 0.00 36 1013.3
20260504003536 78 0 3.0 5.0 0.00 0.00 0.00 35 1013.3
20260504002516 79 0 5.0 7.0 0.00 0.00 0.00 35 1013.3
20260504001517 79 0 8.0 13.0 0.00 0.00 0.00 35 1013.4
20260504000536 79 0 8.0 10.0 0.00 0.00 0.00 33 1013.4
20260503235516 80 0 8.0 12.0 0.00 0.00 0.00 34 1013.5
20260503234517 80 0 6.0 8.0 0.00 0.00 0.00 34 1013.6
20260503233517 81 0 8.0 10.0 0.00 0.00 0.00 34 1013.7
20260503232516 80 0 9.0 14.0 0.00 0.00 0.00 33 1013.8
20260503231516 80 0 6.0 9.0 0.00 0.00 0.00 33 1013.8
20260503230516 80 0 7.0 11.0 0.00 0.00 0.00 34 1013.9
20260503225516 81 0 11.0 15.0 0.00 0.00 0.00 34 1014.0
20260503224516 81 0 8.0 10.0 0.00 0.00 0.00 34 1014.1
20260503223516 81 0 8.0 11.0 0.00 0.00 0.00 33 1014.1
20260503222516 81 0 9.0 12.0 0.00 0.00 0.00 33 1014.2
20260503221516 81 0 7.0 11.0 0.00 0.00 0.00 34 1014.4
20260503220517 81 0 8.0 12.0 0.00 0.00 0.00 36 1014.4
20260503215516 81 0 9.0 13.0 0.00 0.00 0.00 35 1014.4
20260503214516 81 0 7.0 10.0 0.00 0.00 0.00 36 1014.5
20260503213516 80 0 13.0 21.0 0.00 0.00 0.00 34 1014.7
20260503212516 82 0 9.0 12.0 0.00 0.00 0.00 33 1015.1
20260503211516 82 0 9.0 13.0 0.00 0.00 0.00 33 1015.1
20260503210516 81 0 8.0 11.0 0.00 0.00 0.00 33 1015.3
20260503205516 81 0 6.0 12.0 0.00 0.00 0.00 35 1015.4
20260503204516 81 0 9.0 16.0 0.00 0.00 0.00 35 1015.6
20260503203516 82 0 7.0 15.0 0.00 0.00 0.00 36 1015.7
20260503202516 81 0 6.0 10.0 0.00 0.00 0.00 36 1015.8
20260503201536 81 0 8.0 11.0 0.00 0.00 0.00 39 1016.1
20260503200516 81 0 7.0 10.0 0.00 0.00 0.00 39 1016.2
20260503195516 81 0 8.0 11.0 0.00 0.00 0.00 38 1016.3
20260503194516 80 0 7.0 11.0 0.00 0.00 0.00 40 1016.5
20260503193516 80 0 6.0 10.0 0.00 0.00 0.00 40 1016.6
20260503192516 81 0 10.0 14.0 0.00 0.00 0.00 40 1016.8
20260503191516 81 0 7.0 9.0 0.00 0.00 0.00 37 1016.9
20260503190516 80 0 7.0 10.0 0.00 0.00 0.00 38 1017.1
20260503185516 81 0 7.0 11.0 0.00 0.00 0.00 37 1017.1
20260503184515 81 0 11.0 15.0 0.00 0.00 0.00 37 1017.3
20260503183516 80 0 8.0 11.0 0.00 0.00 0.00 38 1017.4
20260503182515 80 0 6.0 9.0 0.00 0.00 0.00 39 1017.5
20260503181515 80 0 10.0 14.0 0.00 0.00 0.00 42 1017.8
20260503180516 79 0 9.0 13.0 0.00 0.00 0.00 42 1018.0
20260503175516 79 0 8.0 12.0 0.00 0.00 0.00 43 1018.2
20260503174515 78 0 12.0 19.0 0.00 0.00 0.00 44 1018.3
20260503173515 78 0 6.0 8.0 0.00 0.00 0.00 46 1018.5
20260503172515 77 0 8.0 11.0 0.00 0.00 0.00 46 1018.6
20260503171515 77 0 10.0 13.0 0.00 0.00 0.00 46 1018.8
20260503170516 77 0 9.0 12.0 0.00 0.00 0.00 47 1019.0
20260503150515 70 0 8.0 15.0 0.00 0.00 0.00 56 1019.2
20260503130517 61 0 5.0 8.0 0.00 0.00 0.00 69 1019.0
20260503110516 57 0 4.0 6.0 0.00 0.00 0.00 74 1018.4